Regional Weather Roundup
Issued by NWS

Home | Current Version | Previous Version | Graphics & Text | Print | Product List | Glossary Off
Versions: 1 2 3 4 5 6 7 8 9 10 11 12 13 14 15 16 17 18 19 20 21 22 23 24 25 26 27 28 29 30 31 32 33 34 35 36 37 38 39 40 41 42 43 44 45 46 47 48 49 50

000
ASUS43 KDMX 180607
RWRIA

WEATHER ROUNDUP FOR IOWA
NATIONAL WEATHER SERVICE DES MOINES IA
100 AM CDT THU SEP 18 2014

NOTE: "FAIR" INDICATES FEW OR NO CLOUDS BELOW 12,000 FEET WITH NO
SIGNIFICANT WEATHER AND/OR OBSTRUCTIONS TO VISIBILITY.

* - THESE STATIONS ARE NOT NWS STATIONS...THUS NOT UNDER NWS
QUALITY CONTROL.  THEY ALSO DO NOT REPORT WEATHER SUCH
AS PRECIPITATION OR FOG.

IAZ001>003-012>014-020>022-031>034-043>046-180700-
   NORTHWEST IOWA

CITY           SKY/WX    TMP DP  RH WIND       PRES   REMARKS
CARROLL *      CLEAR     52  52 100 CALM      30.01R
CHEROKEE *     PTCLDY    56  54  95 CALM      30.01R
DENISON *      PTCLDY    59  57  94 SE5       29.98S
LE MARS *        N/A     59  55  88 CALM      30.00R
ORANGE CITY *  CLEAR     61  54  77 CALM      30.00S
SHELDON *      MOCLDY    55  54  94 CALM      30.00R
SIOUX CITY     PTCLDY    60  57  89 SE6       29.99R
6HR MIN TEMP:  59; 6HR MAX TEMP:  76;

SPENCER        CLEAR     54  50  86 E7        30.01R
6HR MIN TEMP:  53; 6HR MAX TEMP:  70;

STORM LAKE *   CLEAR     55  55 100 SE7       30.01R
$$

IAZ055>058-069>071-079>083-090>094-180700-
   SOUTHWEST IOWA

CITY           SKY/WX    TMP DP  RH WIND       PRES   REMARKS
ATLANTIC *     PTCLDY    57  55  94 CALM      30.00R
AUDUBON *      CLEAR     52  46  82 CALM      30.02R
CLARINDA *     CLEAR     61  59  94 CALM      30.01S
COUNCIL BLFS * CLOUDY    63  61  94 SE7       29.98S
CRESTON *      CLEAR     57  57 100 SE5       30.01S FOG
HARLAN  *      CLEAR     59  57  94 E5        30.03S
LAMONI         CLEAR     59  58  96 SE3       30.01R
6HR MIN TEMP:  59; 6HR MAX TEMP:  70;

SHENANDOAH *   CLEAR     63  61  94 E6        29.99S
$$

IAZ047>049-059>061-072>074-084-180700-
   CENTRAL IOWA

CITY           SKY/WX    TMP DP  RH WIND       PRES   REMARKS
AMES           CLEAR     50  49  96 CALM      30.01S
6HR MIN TEMP:  50; 6HR MAX TEMP:  67;

ANKENY *       CLEAR     55  54  94 CALM      30.01R
CHARITON *     PTCLDY    57  55  94 SE6       30.01S FOG
DES MOINES     CLEAR     62  57  83 CALM      30.01R
6HR MIN TEMP:  62; 6HR MAX TEMP:  72;

GRINNELL*      CLEAR     54  52  94 E6        30.03R
KNOXVILLE *    PTCLDY    57  55  94 SE6       30.00S
MARSHALLTOWN   CLEAR     50  49  96 E6        30.01S
6HR MIN TEMP:  50; 6HR MAX TEMP:  66;

PELLA *        CLEAR     55  54  94 E3        30.03R
PERRY *          N/A     53  52  95 SE5       30.01S
$$

IAZ004>006-015-016-023>025-035-036-180700-
   NORTH CENTRAL IOWA

CITY           SKY/WX    TMP DP  RH WIND       PRES   REMARKS
ALGONA *       CLEAR     55  52  88 SE5       30.02R
CLARION *        N/A     54  52  94 SE6       30.02R
ESTHERVILLE    CLEAR     52  50  93 S3        30.01S
6HR MIN TEMP:  52; 6HR MAX TEMP:  69;

FORT DODGE *   CLEAR     54  50  87 CALM      30.02R
MASON CITY     PTCLDY    49  48  97 CALM      30.04S
6HR MIN TEMP:  49; 6HR MAX TEMP:  66;

FOREST CITY *  MOCLDY    50  50 100 CALM      30.03R
IOWA FALLS *     N/A     50  48  93 CALM      30.04R
$$

IAZ007>011-017>019-026>030-037>042-050>054-066-180700-
   NORTHEAST IOWA

CITY           SKY/WX    TMP DP  RH WIND       PRES   REMARKS
CEDAR RAPIDS   CLEAR     51  51 100 CALM      30.02S FOG
6HR MIN TEMP:  51; 6HR MAX TEMP:  65;

CHARLES CITY * CLEAR     52  48  87 E5        30.04S
CLINTON *      CLEAR     48  46  93 E5        30.06S
DECORAH *      CLEAR     54  50  87 CALM      30.03S
DUBUQUE        CLEAR     50  48  93 CALM      30.05R
6HR MIN TEMP:  50; 6HR MAX TEMP:  64;

MONTICELLO *   FOG       48  48 100 CALM      30.03F VSB 1/2
OELWEIN *      CLEAR     54  50  87 SE6       30.04S
WATERLOO       CLEAR     50  47  89 NE3       30.02S
6HR MIN TEMP:  48; 6HR MAX TEMP:  68;

$$

IAZ064-065-067-068-078-180700-
   EAST CENTRAL IOWA

CITY           SKY/WX    TMP DP  RH WIND       PRES   REMARKS
DAVENPORT      CLEAR     49  46  90 CALM      30.04S
6HR MIN TEMP:  49; 6HR MAX TEMP:  64;

IOWA CITY      FOG       49  49 100 CALM      30.04S VSB 1/4
6HR MIN TEMP:  49; 6HR MAX TEMP:  66;

MT. PLEASANT * CLEAR     51  50  95 CALM      30.03S
MUSCATINE *    FOG       48  48 100 CALM      30.03S VSB 1/2
QUAD CITIES    CLEAR     49  48  97 CALM      30.04R
6HR MIN TEMP:  49; 6HR MAX TEMP:  63;

$$

IAZ062-063-075>077-085>089-095>099-180700-
   SOUTHEAST IOWA

CITY           SKY/WX    TMP DP  RH WIND       PRES   REMARKS
BURLINGTON     CLEAR     51  51 100 CALM      30.02S
6HR MIN TEMP:  51; 6HR MAX TEMP:  66;

FAIRFIELD *    CLEAR     54  52  94 SE3       30.03S
FORT MADISON * CLEAR     54  52  94 SE3       30.04R
KEOKUK *       CLEAR     55  54  94 CALM      30.02S
OSKALOOSA *      N/A     54  53  94 SE5       30.02S
CENTERVILLE *    N/A     55  55 100 SE5       30.03R
OTTUMWA        CLEAR     52  51  97 E5        30.02R
6HR MIN TEMP:  52; 6HR MAX TEMP:  66;

WASHINGTON *   CLEAR     52  52 100 CALM      30.03S
$$

ABBREVIATIONS USED IN REMARKS
   TC - TEMPERATURES IN CELSIUS
  WCI - WIND CHILL INDEX
   HX - HEAT INDEX
  VSB - VISIBILITY
$$



USA.gov is the U.S. government's official web portal to all federal, state and local government web resources and services.